| time (UTC) | temp C | wind direction | speed KPH | gust KPH | rain 1hr cm | rain 24hr cm | rain mn cm | humidity % | barometer mb |
| 20260504160205 | 22 | 73 | 0.0 | 0.0 | 0.00 | 0.00 | 0.00 | 39 | 1010.4 |
| 20260504151132 | 16 | 344 | 0.0 | 0.0 | 0.00 | 0.00 | 0.00 | 53 | 1010.8 |
| 20260504150630 | 16 | 345 | 0.0 | 0.0 | 0.00 | 0.00 | 0.00 | 61 | 1011.0 |
| 20260504150126 | 15 | 344 | 0.0 | 0.0 | 0.00 | 0.00 | 0.00 | 65 | 1011.0 |
| 20260504141055 | 12 | 67 | 0.0 | 0.0 | 0.00 | 0.00 | 0.00 | 73 | 1010.7 |
| 20260504140552 | 12 | 64 | 0.0 | 0.0 | 0.00 | 0.00 | 0.00 | 74 | 1010.6 |
| 20260504130516 | 12 | 6 | 0.0 | 0.0 | 0.00 | 0.00 | 0.00 | 72 | 1010.1 |
| 20260504110403 | 13 | 344 | 0.0 | 0.0 | 0.00 | 0.00 | 0.00 | 69 | 1010.3 |
| 20260504100320 | 14 | 351 | 0.0 | 0.0 | 0.00 | 0.00 | 0.00 | 64 | 1010.2 |
| 20260504081714 | 13 | 31 | 3.2 | 3.2 | 0.00 | 0.00 | 0.00 | 69 | 1010.4 |
| 20260504081210 | 13 | 31 | 0.0 | 0.0 | 0.00 | 0.00 | 0.00 | 67 | 1010.2 |
| 20260504080707 | 14 | 31 | 0.0 | 0.0 | 0.00 | 0.00 | 0.00 | 66 | 1010.2 |
| 20260504080203 | 13 | 31 | 1.6 | 1.6 | 0.00 | 0.00 | 0.00 | 66 | 1010.2 |
| 20260504070131 | 14 | 58 | 0.0 | 0.0 | 0.00 | 0.00 | 0.00 | 68 | 1010.2 |
| 20260504050520 | 16 | 49 | 0.0 | 0.0 | 0.00 | 0.00 | 0.00 | 61 | 1010.2 |
| 20260504050017 | 17 | 49 | 0.0 | 0.0 | 0.00 | 0.00 | 0.00 | 62 | 1010.1 |
| 20260504045513 | 17 | 48 | 0.0 | 0.0 | 0.00 | 0.00 | 0.00 | 59 | 1010.2 |
| 20260504045009 | 17 | 49 | 0.0 | 0.0 | 0.00 | 0.00 | 0.00 | 61 | 1010.0 |
| 20260504044507 | 17 | 39 | 0.0 | 0.0 | 0.00 | 0.00 | 0.00 | 64 | 1010.2 |
| 20260504044003 | 17 | 39 | 0.0 | 0.0 | 0.00 | 0.00 | 0.00 | 63 | 1010.2 |
| 20260504043500 | 17 | 40 | 0.0 | 0.0 | 0.00 | 0.00 | 0.00 | 61 | 1010.1 |
| 20260504042958 | 17 | 40 | 0.0 | 0.0 | 0.00 | 0.00 | 0.00 | 61 | 1010.0 |
| 20260504042454 | 18 | 27 | 0.0 | 0.0 | 0.00 | 0.00 | 0.00 | 59 | 1010.0 |
| 20260504041951 | 18 | 27 | 0.0 | 0.0 | 0.00 | 0.00 | 0.00 | 58 | 1009.9 |
| 20260504041447 | 18 | 28 | 0.0 | 0.0 | 0.00 | 0.00 | 0.00 | 57 | 1009.9 |
| 20260504040943 | 18 | 24 | 0.0 | 1.6 | 0.00 | 0.00 | 0.00 | 58 | 1009.8 |
| 20260504040441 | 18 | 27 | 0.0 | 0.0 | 0.00 | 0.00 | 0.00 | 59 | 1010.1 |
| 20260504035937 | 18 | 27 | 0.0 | 0.0 | 0.00 | 0.00 | 0.00 | 58 | 1009.7 |
| 20260504035435 | 18 | 27 | 0.0 | 0.0 | 0.00 | 0.00 | 0.00 | 59 | 1009.6 |
| 20260504034931 | 19 | 27 | 0.0 | 0.0 | 0.00 | 0.00 | 0.00 | 57 | 1009.6 |
| 20260504034429 | 19 | 27 | 0.0 | 0.0 | 0.00 | 0.00 | 0.00 | 56 | 1009.7 |
| 20260504033926 | 19 | 27 | 1.6 | 1.6 | 0.00 | 0.00 | 0.00 | 56 | 1009.7 |
| 20260504033423 | 20 | 358 | 0.0 | 0.0 | 0.00 | 0.00 | 0.00 | 55 | 1009.6 |
| 20260504032920 | 20 | 358 | 0.0 | 0.0 | 0.00 | 0.00 | 0.00 | 55 | 1009.6 |
| 20260504032417 | 20 | 358 | 0.0 | 0.0 | 0.00 | 0.00 | 0.00 | 53 | 1009.7 |
| 20260504031914 | 20 | 358 | 0.0 | 0.0 | 0.00 | 0.00 | 0.00 | 52 | 1009.4 |
| 20260504031411 | 20 | 358 | 0.0 | 0.0 | 0.00 | 0.00 | 0.00 | 50 | 1009.2 |
| 20260504030908 | 21 | 358 | 0.0 | 0.0 | 0.00 | 0.00 | 0.00 | 50 | 1009.4 |
| 20260504030405 | 21 | 358 | 0.0 | 0.0 | 0.00 | 0.00 | 0.00 | 50 | 1009.5 |
| 20260504025900 | 21 | 358 | 0.0 | 0.0 | 0.00 | 0.00 | 0.00 | 48 | 1009.4 |
| 20260504025357 | 22 | 357 | 0.0 | 0.0 | 0.00 | 0.00 | 0.00 | 46 | 1009.3 |
| 20260504024854 | 22 | 357 | 0.0 | 0.0 | 0.00 | 0.00 | 0.00 | 46 | 1009.2 |
| 20260504024350 | 22 | 357 | 0.0 | 0.0 | 0.00 | 0.00 | 0.00 | 44 | 1009.2 |
| 20260504023847 | 22 | 357 | 0.0 | 0.0 | 0.00 | 0.00 | 0.00 | 43 | 1009.2 |
| 20260504023344 | 23 | 357 | 0.0 | 0.0 | 0.00 | 0.00 | 0.00 | 41 | 1009.2 |
| 20260504022840 | 23 | 357 | 0.0 | 0.0 | 0.00 | 0.00 | 0.00 | 39 | 1009.2 |
| 20260504022337 | 23 | 357 | 0.0 | 0.0 | 0.00 | 0.00 | 0.00 | 38 | 1009.3 |
| 20260504021833 | 24 | 357 | 0.0 | 0.0 | 0.00 | 0.00 | 0.00 | 36 | 1009.1 |
| 20260504021331 | 25 | 357 | 0.0 | 0.0 | 0.00 | 0.00 | 0.00 | 35 | 1009.2 |
| 20260504020828 | 25 | 356 | 0.0 | 0.0 | 0.00 | 0.00 | 0.00 | 34 | 1009.2 |
| 20260504020325 | 25 | 356 | 0.0 | 1.6 | 0.00 | 0.00 | 0.00 | 33 | 1009.1 |
| 20260504015820 | 25 | 45 | 0.0 | 0.0 | 0.00 | 0.00 | 0.00 | 32 | 1009.2 |
| 20260504015317 | 26 | 48 | 0.0 | 0.0 | 0.00 | 0.00 | 0.00 | 31 | 1009.4 |
| 20260504014813 | 26 | 70 | 0.0 | 0.0 | 0.00 | 0.00 | 0.00 | 30 | 1009.5 |
| 20260504014309 | 27 | 8 | 0.0 | 0.0 | 0.00 | 0.00 | 0.00 | 29 | 1009.4 |
| 20260504013807 | 27 | 7 | 0.0 | 0.0 | 0.00 | 0.00 | 0.00 | 28 | 1009.3 |
| 20260504013305 | 28 | 7 | 0.0 | 0.0 | 0.00 | 0.00 | 0.00 | 26 | 1009.4 |
| 20260504012801 | 28 | 11 | 0.0 | 0.0 | 0.00 | 0.00 | 0.00 | 25 | 1009.2 |
| 20260504012259 | 28 | 11 | 0.0 | 1.6 | 0.00 | 0.00 | 0.00 | 24 | 1009.2 |
| 20260504011756 | 29 | 76 | 1.6 | 1.6 | 0.00 | 0.00 | 0.00 | 24 | 1009.6 |
| 20260504011252 | 28 | 73 | 0.0 | 0.0 | 0.00 | 0.00 | 0.00 | 23 | 1009.5 |
| 20260504010748 | 28 | 86 | 0.0 | 0.0 | 0.00 | 0.00 | 0.00 | 25 | 1009.6 |
| 20260504010244 | 28 | 61 | 1.6 | 1.6 | 0.00 | 0.00 | 0.00 | 23 | 1009.5 |
| 20260504005741 | 28 | 87 | 0.0 | 1.6 | 0.00 | 0.00 | 0.00 | 22 | 1009.6 |
| 20260504005238 | 28 | 239 | 4.8 | 6.4 | 0.00 | 0.00 | 0.00 | 21 | 1009.5 |
| 20260504004736 | 28 | 353 | 0.0 | 0.0 | 0.00 | 0.00 | 0.00 | 21 | 1009.6 |
| 20260504004232 | 28 | 72 | 1.6 | 1.6 | 0.00 | 0.00 | 0.00 | 22 | 1009.8 |
| 20260504003729 | 28 | 76 | 0.0 | 1.6 | 0.00 | 0.00 | 0.00 | 20 | 1009.6 |
| 20260504003226 | 28 | 130 | 3.2 | 3.2 | 0.00 | 0.00 | 0.00 | 21 | 1009.7 |
| 20260504002723 | 28 | 53 | 1.6 | 1.6 | 0.00 | 0.00 | 0.00 | 20 | 1009.8 |
| 20260504002219 | 29 | 291 | 1.6 | 3.2 | 0.00 | 0.00 | 0.00 | 19 | 1009.8 |
| 20260504001718 | 29 | 329 | 1.6 | 1.6 | 0.00 | 0.00 | 0.00 | 17 | 1009.9 |
| 20260504001214 | 28 | 343 | 0.0 | 1.6 | 0.00 | 0.00 | 0.00 | 20 | 1010.1 |
| 20260504000711 | 30 | 140 | 3.2 | 6.4 | 0.00 | 0.00 | 0.00 | 19 | 1010.1 |
| 20260504000208 | 30 | 92 | 1.6 | 1.6 | 0.00 | 0.00 | 0.00 | 18 | 1009.9 |
| 20260503235706 | 30 | 71 | 0.0 | 0.0 | 0.00 | 0.00 | 0.00 | 19 | 1010.0 |
| 20260503235203 | 29 | 355 | 1.6 | 3.2 | 0.00 | 0.00 | 0.00 | 18 | 1010.1 |
| 20260503234701 | 30 | 210 | 1.6 | 4.8 | 0.00 | 0.00 | 0.00 | 19 | 1010.2 |
| 20260503234159 | 29 | 145 | 3.2 | 3.2 | 0.00 | 0.00 | 0.00 | 20 | 1010.3 |
| 20260503233655 | 28 | 121 | 3.2 | 4.8 | 0.00 | 0.00 | 0.00 | 20 | 1010.4 |
| 20260503233151 | 28 | 93 | 1.6 | 3.2 | 0.00 | 0.00 | 0.00 | 20 | 1010.1 |
| 20260503232648 | 30 | 125 | 1.6 | 4.8 | 0.00 | 0.00 | 0.00 | 20 | 1010.4 |
| 20260503232145 | 30 | 126 | 3.2 | 3.2 | 0.00 | 0.00 | 0.00 | 19 | 1010.4 |
| 20260503231644 | 30 | 89 | 1.6 | 3.2 | 0.00 | 0.00 | 0.00 | 21 | 1010.5 |
| 20260503231139 | 30 | 262 | 6.4 | 9.7 | 0.00 | 0.00 | 0.00 | 20 | 1010.6 |
| 20260503230636 | 30 | 353 | 1.6 | 3.2 | 0.00 | 0.00 | 0.00 | 20 | 1010.5 |
| 20260503230134 | 29 | 88 | 1.6 | 1.6 | 0.00 | 0.00 | 0.00 | 22 | 1010.6 |
| 20260503225631 | 28 | 200 | 3.2 | 4.8 | 0.00 | 0.00 | 0.00 | 21 | 1010.5 |
| 20260503225131 | 30 | 117 | 1.6 | 3.2 | 0.00 | 0.00 | 0.00 | 22 | 1010.7 |
| 20260503224628 | 29 | 135 | 4.8 | 6.4 | 0.00 | 0.00 | 0.00 | 21 | 1010.6 |
| 20260503224126 | 29 | 78 | 0.0 | 0.0 | 0.00 | 0.00 | 0.00 | 22 | 1010.6 |
| 20260503223624 | 29 | 155 | 3.2 | 4.8 | 0.00 | 0.00 | 0.00 | 21 | 1011.0 |
| 20260503223120 | 29 | 341 | 1.6 | 1.6 | 0.00 | 0.00 | 0.00 | 22 | 1010.8 |
| 20260503222618 | 29 | 189 | 4.8 | 4.8 | 0.00 | 0.00 | 0.00 | 22 | 1011.1 |
| 20260503222115 | 28 | 94 | 0.0 | 1.6 | 0.00 | 0.00 | 0.00 | 21 | 1011.0 |
| 20260503221613 | 28 | 114 | 3.2 | 3.2 | 0.00 | 0.00 | 0.00 | 22 | 1011.0 |
| 20260503221110 | 28 | 133 | 3.2 | 4.8 | 0.00 | 0.00 | 0.00 | 24 | 1011.0 |
| 20260503220607 | 28 | 130 | 1.6 | 3.2 | 0.00 | 0.00 | 0.00 | 23 | 1011.0 |
| 20260503220104 | 29 | 163 | 6.4 | 6.4 | 0.00 | 0.00 | 0.00 | 23 | 1011.1 |
| 20260503215601 | 28 | 37 | 1.6 | 3.2 | 0.00 | 0.00 | 0.00 | 24 | 1011.1 |
| 20260503215057 | 28 | 146 | 1.6 | 1.6 | 0.00 | 0.00 | 0.00 | 24 | 1011.1 |
| 20260503214555 | 27 | 43 | 0.0 | 1.6 | 0.00 | 0.00 | 0.00 | 25 | 1011.3 |
| 20260503214052 | 28 | 152 | 3.2 | 4.8 | 0.00 | 0.00 | 0.00 | 23 | 1011.3 |
| 20260503213550 | 27 | 179 | 6.4 | 6.4 | 0.00 | 0.00 | 0.00 | 24 | 1011.3 |
| 20260503213047 | 28 | 157 | 4.8 | 4.8 | 0.00 | 0.00 | 0.00 | 24 | 1011.4 |
| 20260503212544 | 28 | 173 | 4.8 | 4.8 | 0.00 | 0.00 | 0.00 | 24 | 1011.4 |
| 20260503212042 | 28 | 164 | 3.2 | 4.8 | 0.00 | 0.00 | 0.00 | 24 | 1011.5 |
| 20260503211539 | 27 | 121 | 0.0 | 1.6 | 0.00 | 0.00 | 0.00 | 24 | 1011.2 |
| 20260503211034 | 28 | 208 | 6.4 | 9.7 | 0.00 | 0.00 | 0.00 | 24 | 1011.3 |
| 20260503210531 | 27 | 142 | 3.2 | 4.8 | 0.00 | 0.00 | 0.00 | 26 | 1011.7 |
| 20260503210027 | 27 | 149 | 3.2 | 3.2 | 0.00 | 0.00 | 0.00 | 24 | 1011.7 |
| 20260503205524 | 27 | 159 | 4.8 | 9.7 | 0.00 | 0.00 | 0.00 | 24 | 1011.5 |
| 20260503205020 | 27 | 108 | 1.6 | 3.2 | 0.00 | 0.00 | 0.00 | 24 | 1011.8 |
| 20260503204517 | 27 | 75 | 0.0 | 0.0 | 0.00 | 0.00 | 0.00 | 25 | 1011.8 |
| 20260503204014 | 27 | 158 | 3.2 | 6.4 | 0.00 | 0.00 | 0.00 | 24 | 1012.0 |
| 20260503203511 | 26 | 80 | 1.6 | 1.6 | 0.00 | 0.00 | 0.00 | 26 | 1012.0 |
| 20260503203008 | 26 | 196 | 4.8 | 4.8 | 0.00 | 0.00 | 0.00 | 26 | 1012.0 |
| 20260503202506 | 26 | 217 | 4.8 | 4.8 | 0.00 | 0.00 | 0.00 | 25 | 1012.0 |
| 20260503202004 | 26 | 189 | 3.2 | 9.7 | 0.00 | 0.00 | 0.00 | 27 | 1012.2 |
| 20260503201501 | 27 | 167 | 4.8 | 4.8 | 0.00 | 0.00 | 0.00 | 25 | 1012.2 |
| 20260503200958 | 27 | 135 | 3.2 | 4.8 | 0.00 | 0.00 | 0.00 | 24 | 1012.3 |
| 20260503200455 | 27 | 271 | 4.8 | 6.4 | 0.00 | 0.00 | 0.00 | 25 | 1012.3 |
| 20260503195951 | 26 | 160 | 6.4 | 6.4 | 0.00 | 0.00 | 0.00 | 26 | 1012.4 |
| 20260503195449 | 27 | 178 | 1.6 | 4.8 | 0.00 | 0.00 | 0.00 | 27 | 1012.4 |
| 20260503194945 | 27 | 158 | 0.0 | 1.6 | 0.00 | 0.00 | 0.00 | 28 | 1012.6 |
| 20260503194443 | 27 | 98 | 3.2 | 6.4 | 0.00 | 0.00 | 0.00 | 24 | 1012.7 |
| 20260503193938 | 27 | 152 | 4.8 | 6.4 | 0.00 | 0.00 | 0.00 | 24 | 1012.6 |
| 20260503193433 | 27 | 63 | 0.0 | 1.6 | 0.00 | 0.00 | 0.00 | 27 | 1012.7 |
| 20260503192929 | 26 | 146 | 3.2 | 3.2 | 0.00 | 0.00 | 0.00 | 27 | 1012.6 |
| 20260503192426 | 26 | 84 | 1.6 | 3.2 | 0.00 | 0.00 | 0.00 | 29 | 1012.8 |
| 20260503191921 | 26 | 101 | 1.6 | 1.6 | 0.00 | 0.00 | 0.00 | 27 | 1012.9 |
| 20260503191419 | 26 | 54 | 0.0 | 1.6 | 0.00 | 0.00 | 0.00 | 27 | 1012.8 |
| 20260503190915 | 26 | 70 | 0.0 | 1.6 | 0.00 | 0.00 | 0.00 | 30 | 1013.0 |
| 20260503190413 | 26 | 175 | 4.8 | 6.4 | 0.00 | 0.00 | 0.00 | 27 | 1013.1 |
| 20260503185909 | 26 | 144 | 3.2 | 4.8 | 0.00 | 0.00 | 0.00 | 27 | 1013.0 |
| 20260503185406 | 26 | 175 | 4.8 | 4.8 | 0.00 | 0.00 | 0.00 | 28 | 1013.2 |
| 20260503184905 | 25 | 154 | 6.4 | 9.7 | 0.00 | 0.00 | 0.00 | 27 | 1012.8 |
| 20260503184402 | 25 | 134 | 1.6 | 3.2 | 0.00 | 0.00 | 0.00 | 28 | 1013.1 |
| 20260503183858 | 25 | 100 | 0.0 | 0.0 | 0.00 | 0.00 | 0.00 | 30 | 1013.2 |
| 20260503183355 | 25 | 143 | 3.2 | 4.8 | 0.00 | 0.00 | 0.00 | 28 | 1013.1 |
| 20260503182853 | 26 | 87 | 1.6 | 1.6 | 0.00 | 0.00 | 0.00 | 26 | 1013.2 |
| 20260503182351 | 26 | 271 | 3.2 | 3.2 | 0.00 | 0.00 | 0.00 | 27 | 1013.4 |
| 20260503181848 | 25 | 53 | 0.0 | 0.0 | 0.00 | 0.00 | 0.00 | 28 | 1013.3 |
| 20260503181345 | 25 | 100 | 1.6 | 3.2 | 0.00 | 0.00 | 0.00 | 30 | 1013.7 |
| 20260503180841 | 25 | 151 | 1.6 | 3.2 | 0.00 | 0.00 | 0.00 | 29 | 1013.7 |
| 20260503180340 | 25 | 93 | 1.6 | 1.6 | 0.00 | 0.00 | 0.00 | 30 | 1013.7 |
| 20260503175836 | 24 | 142 | 3.2 | 3.2 | 0.00 | 0.00 | 0.00 | 31 | 1013.9 |
| 20260503175334 | 24 | 163 | 1.6 | 3.2 | 0.00 | 0.00 | 0.00 | 32 | 1014.1 |
| 20260503174835 | 24 | 159 | 3.2 | 4.8 | 0.00 | 0.00 | 0.00 | 30 | 1014.0 |
| 20260503174333 | 23 | 88 | 0.0 | 0.0 | 0.00 | 0.00 | 0.00 | 31 | 1013.8 |
| 20260503173828 | 23 | 88 | 1.6 | 3.2 | 0.00 | 0.00 | 0.00 | 33 | 1014.2 |
| 20260503173325 | 23 | 135 | 3.2 | 3.2 | 0.00 | 0.00 | 0.00 | 32 | 1014.2 |
| 20260503172821 | 23 | 110 | 0.0 | 1.6 | 0.00 | 0.00 | 0.00 | 33 | 1014.2 |
| 20260503172319 | 23 | 117 | 1.6 | 1.6 | 0.00 | 0.00 | 0.00 | 34 | 1014.2 |
| 20260503171815 | 22 | 94 | 0.0 | 0.0 | 0.00 | 0.00 | 0.00 | 35 | 1014.3 |
| 20260503171312 | 22 | 106 | 1.6 | 1.6 | 0.00 | 0.00 | 0.00 | 34 | 1014.4 |
| 20260503170809 | 23 | 145 | 1.6 | 1.6 | 0.00 | 0.00 | 0.00 | 33 | 1014.6 |
| 20260503170306 | 23 | 118 | 0.0 | 1.6 | 0.00 | 0.00 | 0.00 | 32 | 1014.6 |